| time (UTC) | temp F | wind direction | speed MPH | gust MPH | rain 1hr in | rain 24hr in | rain mn in | humidity % | barometer mb |
| 20260502233026 | 76 | 245 | 4.0 | 6.0 | 0.00 | 0.00 | 0.00 | 29 | 1019.5 |
| 20260502232029 | 76 | 215 | 2.0 | 5.0 | 0.00 | 0.00 | 0.00 | 29 | 1019.4 |
| 20260502231027 | 76 | 299 | 4.0 | 8.0 | 0.00 | 0.00 | 0.00 | 29 | 1019.4 |
| 20260502230018 | 80 | 274 | 3.0 | 5.0 | 0.00 | 0.00 | 0.00 | 28 | 1019.3 |
| 20260502225021 | 79 | 283 | 2.0 | 5.0 | 0.00 | 0.00 | 0.00 | 29 | 1019.3 |
| 20260502224018 | 80 | 268 | 4.0 | 7.0 | 0.00 | 0.00 | 0.00 | 29 | 1019.4 |
| 20260502212031 | 77 | 281 | 4.0 | 7.0 | 0.00 | 0.00 | 0.00 | 30 | 1019.4 |
| 20260502211016 | 76 | 228 | 5.0 | 6.0 | 0.00 | 0.00 | 0.00 | 30 | 1019.4 |
| 20260502210019 | 75 | 271 | 7.0 | 11.0 | 0.00 | 0.00 | 0.00 | 30 | 1019.4 |
| 20260502205022 | 75 | 270 | 7.0 | 10.0 | 0.00 | 0.00 | 0.00 | 33 | 1019.5 |
| 20260502204025 | 74 | 267 | 5.0 | 7.0 | 0.00 | 0.00 | 0.00 | 34 | 1019.7 |
| 20260502203029 | 73 | 257 | 5.0 | 9.0 | 0.00 | 0.00 | 0.00 | 35 | 1019.8 |
| 20260502202033 | 74 | 273 | 4.0 | 6.0 | 0.00 | 0.00 | 0.00 | 34 | 1019.8 |
| 20260502201017 | 73 | 271 | 5.0 | 8.0 | 0.00 | 0.00 | 0.00 | 35 | 1019.8 |
| 20260502200020 | 73 | 268 | 5.0 | 8.0 | 0.00 | 0.00 | 0.00 | 35 | 1019.9 |
| 20260502195044 | 72 | 262 | 3.0 | 5.0 | 0.00 | 0.00 | 0.00 | 36 | 1020.0 |
| 20260502194047 | 73 | 265 | 3.0 | 5.0 | 0.00 | 0.00 | 0.00 | 35 | 1020.1 |
| 20260502193024 | 72 | 277 | 5.0 | 8.0 | 0.00 | 0.00 | 0.00 | 34 | 1020.1 |
| 20260502192015 | 77 | 272 | 5.0 | 9.0 | 0.00 | 0.00 | 0.00 | 33 | 1020.1 |
| 20260502191018 | 74 | 256 | 6.0 | 12.0 | 0.00 | 0.00 | 0.00 | 34 | 1020.1 |
| 20260502190015 | 74 | 288 | 5.0 | 9.0 | 0.00 | 0.00 | 0.00 | 34 | 1020.4 |
| 20260502185025 | 74 | 307 | 5.0 | 7.0 | 0.00 | 0.00 | 0.00 | 33 | 1020.4 |
| 20260502184028 | 73 | 284 | 5.0 | 11.0 | 0.00 | 0.00 | 0.00 | 33 | 1020.5 |
| 20260502183031 | 74 | 270 | 3.0 | 6.0 | 0.00 | 0.00 | 0.00 | 34 | 1020.6 |
| 20260502182016 | 74 | 263 | 6.0 | 10.0 | 0.00 | 0.00 | 0.00 | 32 | 1020.7 |
| 20260502181019 | 74 | 293 | 6.0 | 9.0 | 0.00 | 0.00 | 0.00 | 32 | 1020.8 |
| 20260502164029 | 74 | 280 | 4.0 | 7.0 | 0.00 | 0.00 | 0.00 | 33 | 1021.6 |
| 20260502163032 | 73 | 277 | 4.0 | 9.0 | 0.00 | 0.00 | 0.00 | 33 | 1021.6 |
| 20260502162017 | 74 | 288 | 4.0 | 7.0 | 0.00 | 0.00 | 0.00 | 34 | 1021.7 |
| 20260502161021 | 72 | 283 | 4.0 | 6.0 | 0.00 | 0.00 | 0.00 | 34 | 1021.7 |
| 20260502151021 | 73 | 273 | 1.0 | 3.0 | 0.00 | 0.00 | 0.00 | 36 | 1021.7 |
| 20260502123043 | 45 | 0.0 | 0.0 | 0.00 | 0.00 | 0.00 | 92 | 1020.7 | |
| 20260502122020 | 44 | 0.0 | 0.0 | 0.00 | 0.00 | 0.00 | 93 | 1020.6 | |
| 20260502121017 | 43 | 0.0 | 0.0 | 0.00 | 0.00 | 0.00 | 93 | 1020.5 | |
| 20260502115023 | 43 | 0.0 | 0.0 | 0.00 | 0.00 | 0.00 | 95 | 1020.4 | |
| 20260502114026 | 42 | 0.0 | 0.0 | 0.00 | 0.00 | 0.00 | 93 | 1020.3 | |
| 20260502113029 | 42 | 0.0 | 0.0 | 0.00 | 0.00 | 0.00 | 92 | 1020.1 | |
| 20260502112052 | 42 | 0.0 | 0.0 | 0.00 | 0.00 | 0.00 | 92 | 1020.2 | |
| 20260502111017 | 42 | 0.0 | 0.0 | 0.00 | 0.00 | 0.00 | 92 | 1020.2 | |
| 20260502110021 | 42 | 0.0 | 0.0 | 0.00 | 0.00 | 0.00 | 93 | 1020.0 | |
| 20260502105024 | 43 | 0.0 | 0.0 | 0.00 | 0.00 | 0.00 | 90 | 1019.7 | |
| 20260502104107 | 43 | 0.0 | 0.0 | 0.00 | 0.00 | 0.00 | 88 | 1019.7 | |
| 20260502103030 | 43 | 0.0 | 0.0 | 0.00 | 0.00 | 0.00 | 87 | 1019.7 | |
| 20260502102015 | 43 | 0.0 | 0.0 | 0.00 | 0.00 | 0.00 | 87 | 1019.7 | |
| 20260502101019 | 43 | 0.0 | 0.0 | 0.00 | 0.00 | 0.00 | 86 | 1019.7 | |
| 20260502091019 | 46 | 0.0 | 0.0 | 0.00 | 0.00 | 0.00 | 80 | 1019.5 | |
| 20260502071021 | 54 | 0.0 | 0.0 | 0.00 | 0.00 | 0.00 | 60 | 1019.6 | |
| 20260502070024 | 54 | 0.0 | 0.0 | 0.00 | 0.00 | 0.00 | 59 | 1019.5 | |
| 20260502065027 | 55 | 0.0 | 1.0 | 0.00 | 0.00 | 0.00 | 58 | 1019.6 | |
| 20260502064050 | 55 | 290 | 1.0 | 2.0 | 0.00 | 0.00 | 0.00 | 57 | 1019.9 |
| 20260502063015 | 55 | 0.0 | 2.0 | 0.00 | 0.00 | 0.00 | 56 | 1020.0 | |
| 20260502062018 | 56 | 263 | 1.0 | 2.0 | 0.00 | 0.00 | 0.00 | 55 | 1020.1 |
| 20260502061022 | 56 | 291 | 2.0 | 4.0 | 0.00 | 0.00 | 0.00 | 55 | 1020.2 |
| 20260502060025 | 56 | 303 | 1.0 | 2.0 | 0.00 | 0.00 | 0.00 | 55 | 1020.0 |
| 20260502055028 | 56 | 280 | 2.0 | 3.0 | 0.00 | 0.00 | 0.00 | 54 | 1020.0 |
| 20260502053016 | 57 | 288 | 2.0 | 3.0 | 0.00 | 0.00 | 0.00 | 52 | 1019.8 |
| 20260502052020 | 57 | 270 | 1.0 | 2.0 | 0.00 | 0.00 | 0.00 | 52 | 1019.7 |
| 20260502051016 | 57 | 293 | 1.0 | 3.0 | 0.00 | 0.00 | 0.00 | 52 | 1019.7 |
| 20260502050026 | 57 | 293 | 0.0 | 2.0 | 0.00 | 0.00 | 0.00 | 52 | 1019.6 |
| 20260502045029 | 57 | 276 | 1.0 | 2.0 | 0.00 | 0.00 | 0.00 | 51 | 1019.6 |
| 20260502044052 | 57 | 235 | 1.0 | 3.0 | 0.00 | 0.00 | 0.00 | 51 | 1019.5 |
| 20260502043017 | 57 | 293 | 0.0 | 2.0 | 0.00 | 0.00 | 0.00 | 51 | 1019.4 |
| 20260502042020 | 57 | 0.0 | 0.0 | 0.00 | 0.00 | 0.00 | 51 | 1019.3 | |
| 20260502041028 | 58 | 270 | 0.0 | 1.0 | 0.00 | 0.00 | 0.00 | 51 | 1019.2 |
| 20260502040026 | 58 | 274 | 1.0 | 3.0 | 0.00 | 0.00 | 0.00 | 50 | 1019.2 |
| 20260502035029 | 58 | 5 | 1.0 | 3.0 | 0.00 | 0.00 | 0.00 | 50 | 1019.2 |
| 20260502034033 | 58 | 316 | 1.0 | 2.0 | 0.00 | 0.00 | 0.00 | 50 | 1019.1 |
| 20260502033018 | 58 | 32 | 2.0 | 5.0 | 0.00 | 0.00 | 0.00 | 50 | 1019.0 |
| 20260502032107 | 58 | 66 | 2.0 | 3.0 | 0.00 | 0.00 | 0.00 | 51 | 1019.0 |
| 20260502031024 | 58 | 19 | 1.0 | 2.0 | 0.00 | 0.00 | 0.00 | 52 | 1019.2 |
| 20260502030027 | 58 | 109 | 1.0 | 2.0 | 0.00 | 0.00 | 0.00 | 53 | 1019.2 |
| 20260502025030 | 58 | 83 | 0.0 | 3.0 | 0.00 | 0.00 | 0.00 | 53 | 1019.7 |
| 20260502024015 | 58 | 158 | 0.0 | 1.0 | 0.00 | 0.00 | 0.00 | 52 | 1019.8 |
| 20260502023038 | 58 | 0.0 | 1.0 | 0.00 | 0.00 | 0.00 | 52 | 1020.0 | |
| 20260502022021 | 59 | 0.0 | 0.0 | 0.00 | 0.00 | 0.00 | 50 | 1020.1 | |
| 20260502021025 | 59 | 0.0 | 0.0 | 0.00 | 0.00 | 0.00 | 49 | 1020.1 | |
| 20260502020022 | 59 | 293 | 0.0 | 2.0 | 0.00 | 0.00 | 0.00 | 48 | 1019.7 |
| 20260502015039 | 60 | 304 | 0.0 | 2.0 | 0.00 | 0.00 | 0.00 | 47 | 1019.7 |
| 20260502014016 | 60 | 0.0 | 0.0 | 0.00 | 0.00 | 0.00 | 48 | 1019.6 | |
| 20260502013019 | 61 | 248 | 0.0 | 1.0 | 0.00 | 0.00 | 0.00 | 46 | 1019.1 |
| 20260502012022 | 61 | 270 | 0.0 | 1.0 | 0.00 | 0.00 | 0.00 | 46 | 1018.8 |
| 20260502011025 | 62 | 0.0 | 0.0 | 0.00 | 0.00 | 0.00 | 44 | 1018.6 | |
| 20260502010028 | 62 | 82 | 1.0 | 3.0 | 0.00 | 0.00 | 0.00 | 44 | 1018.6 |
| 20260502005052 | 63 | 63 | 1.0 | 2.0 | 0.00 | 0.00 | 0.00 | 43 | 1018.4 |
| 20260502004037 | 64 | 59 | 1.0 | 3.0 | 0.00 | 0.00 | 0.00 | 44 | 1018.4 |
| 20260502003019 | 64 | 316 | 2.0 | 4.0 | 0.00 | 0.00 | 0.00 | 43 | 1018.2 |
| 20260502002023 | 65 | 68 | 2.0 | 3.0 | 0.00 | 0.00 | 0.00 | 41 | 1018.1 |
| 20260502001026 | 66 | 105 | 2.0 | 3.0 | 0.00 | 0.00 | 0.00 | 40 | 1018.1 |
| 20260502000029 | 67 | 71 | 1.0 | 2.0 | 0.00 | 0.00 | 0.00 | 39 | 1017.9 |
| 20260501235032 | 68 | 289 | 2.0 | 3.0 | 0.00 | 0.00 | 0.00 | 39 | 1017.7 |
| 20260501234018 | 70 | 90 | 0.0 | 2.0 | 0.00 | 0.00 | 0.00 | 40 | 1017.6 |